| time (UTC) | temp C | wind direction | speed KPH | gust KPH | rain 1hr cm | rain 24hr cm | rain mn cm | humidity % | barometer mb |
| 20260505093035 | 15 | 0 | 0.0 | 1.6 | 0.00 | 0.00 | 0.00 | 77 | 1010.9 |
| 20260505091535 | 15 | 0 | 0.0 | 0.0 | 0.00 | 0.00 | 0.00 | 77 | 1011.1 |
| 20260505090035 | 15 | 0 | 0.0 | 0.0 | 0.00 | 0.00 | 0.00 | 78 | 1010.9 |
| 20260505084544 | 14 | 0 | 0.0 | 1.6 | 0.00 | 0.00 | 0.00 | 80 | 1010.6 |
| 20260505083042 | 15 | 0 | 0.0 | 3.2 | 0.00 | 0.00 | 0.00 | 78 | 1010.8 |
| 20260505081538 | 15 | 0 | 0.0 | 0.0 | 0.00 | 0.00 | 0.00 | 76 | 1010.9 |
| 20260505080033 | 15 | 0 | 0.0 | 0.0 | 0.00 | 0.00 | 0.00 | 76 | 1011.0 |
| 20260505074535 | 15 | 0 | 0.0 | 0.0 | 0.00 | 0.00 | 0.00 | 76 | 1011.1 |
| 20260505073034 | 15 | 0 | 0.0 | 0.0 | 0.00 | 0.00 | 0.00 | 77 | 1011.0 |
| 20260505071536 | 14 | 0 | 0.0 | 0.0 | 0.00 | 0.00 | 0.00 | 77 | 1011.0 |
| 20260505070044 | 14 | 0 | 0.0 | 0.0 | 0.00 | 0.00 | 0.00 | 77 | 1011.1 |
| 20260505064536 | 14 | 0 | 0.0 | 1.6 | 0.00 | 0.00 | 0.00 | 77 | 1011.0 |
| 20260505063035 | 14 | 0 | 0.0 | 0.0 | 0.00 | 0.00 | 0.00 | 75 | 1010.9 |
| 20260505061534 | 14 | 0 | 0.0 | 0.0 | 0.00 | 0.00 | 0.00 | 74 | 1011.0 |
| 20260505060039 | 15 | 0 | 0.0 | 0.0 | 0.00 | 0.00 | 0.00 | 74 | 1011.0 |
| 20260505054531 | 15 | 0 | 0.0 | 0.0 | 0.00 | 0.00 | 0.00 | 72 | 1011.2 |
| 20260505053101 | 15 | 0 | 0.0 | 0.0 | 0.00 | 0.00 | 0.00 | 72 | 1011.3 |
| 20260505051532 | 15 | 0 | 0.0 | 0.0 | 0.00 | 0.00 | 0.00 | 71 | 1011.3 |
| 20260505041541 | 16 | 0 | 0.0 | 4.8 | 0.00 | 0.00 | 0.00 | 65 | 1011.2 |
| 20260505040038 | 16 | 129 | 0.0 | 4.8 | 0.00 | 0.00 | 0.00 | 67 | 1011.2 |
| 20260505034536 | 16 | 0 | 0.0 | 6.4 | 0.00 | 0.00 | 0.00 | 67 | 1011.3 |
| 20260505033045 | 16 | 0 | 0.0 | 4.8 | 0.00 | 0.00 | 0.00 | 66 | 1011.3 |
| 20260505031535 | 16 | 130 | 1.6 | 11.3 | 0.00 | 0.00 | 0.00 | 65 | 1011.3 |
| 20260505030035 | 16 | 0 | 0.0 | 4.8 | 0.00 | 0.00 | 0.00 | 63 | 1011.3 |
| 20260505024535 | 16 | 0 | 0.0 | 8.0 | 0.00 | 0.00 | 0.00 | 60 | 1011.4 |
| 20260505023035 | 16 | 133 | 0.0 | 6.4 | 0.00 | 0.00 | 0.00 | 51 | 1011.5 |
| 20260505021536 | 17 | 0 | 0.0 | 4.8 | 0.00 | 0.00 | 0.00 | 54 | 1011.5 |
| 20260505020033 | 17 | 0 | 0.0 | 6.4 | 0.00 | 0.00 | 0.00 | 52 | 1011.4 |
| 20260505014535 | 17 | 0 | 0.0 | 3.2 | 0.00 | 0.00 | 0.00 | 51 | 1011.5 |
| 20260505013038 | 18 | 0 | 0.0 | 11.3 | 0.00 | 0.00 | 0.00 | 50 | 1011.3 |
| 20260505011555 | 18 | 0 | 0.0 | 6.4 | 0.00 | 0.00 | 0.00 | 49 | 1011.2 |
| 20260505010036 | 18 | 124 | 0.0 | 3.2 | 0.00 | 0.00 | 0.00 | 47 | 1011.1 |
| 20260505004535 | 18 | 0 | 0.0 | 4.8 | 0.00 | 0.00 | 0.00 | 46 | 1010.9 |
| 20260505003032 | 18 | 163 | 0.0 | 3.2 | 0.00 | 0.00 | 0.00 | 50 | 1010.7 |
| 20260505001536 | 18 | 0 | 0.0 | 1.6 | 0.00 | 0.00 | 0.00 | 41 | 1010.6 |
| 20260505000111 | 20 | 163 | 0.0 | 3.2 | 0.00 | 0.00 | 0.00 | 46 | 1010.5 |
| 20260504234533 | 20 | 0 | 0.0 | 6.4 | 0.00 | 0.00 | 0.00 | 44 | 1010.4 |
| 20260504233045 | 20 | 0 | 0.0 | 6.4 | 0.00 | 0.00 | 0.00 | 36 | 1010.2 |
| 20260504231533 | 20 | 29 | 0.0 | 8.0 | 0.00 | 0.00 | 0.00 | 41 | 1010.2 |
| 20260504230037 | 20 | 0 | 0.0 | 8.0 | 0.00 | 0.00 | 0.00 | 35 | 1010.2 |
| 20260504224541 | 21 | 0 | 0.0 | 8.0 | 0.00 | 0.00 | 0.00 | 40 | 1010.3 |
| 20260504223036 | 21 | 128 | 0.0 | 6.4 | 0.00 | 0.00 | 0.00 | 39 | 1010.2 |
| 20260504221533 | 21 | 200 | 0.0 | 6.4 | 0.00 | 0.00 | 0.00 | 39 | 1010.2 |
| 20260504220035 | 21 | 202 | 0.0 | 4.8 | 0.00 | 0.00 | 0.00 | 32 | 1010.3 |
| 20260504214536 | 21 | 0 | 1.6 | 8.0 | 0.00 | 0.00 | 0.00 | 39 | 1010.5 |
| 20260504213038 | 21 | 0 | 0.0 | 3.2 | 0.00 | 0.00 | 0.00 | 30 | 1010.4 |
| 20260504211535 | 21 | 0 | 0.0 | 8.0 | 0.00 | 0.00 | 0.00 | 28 | 1010.4 |
| 20260504210037 | 22 | 0 | 0.0 | 9.7 | 0.00 | 0.00 | 0.00 | 36 | 1010.5 |
| 20260504204531 | 22 | 0 | 0.0 | 8.0 | 0.00 | 0.00 | 0.00 | 37 | 1010.4 |
| 20260504203034 | 22 | 0 | 3.2 | 9.7 | 0.00 | 0.00 | 0.00 | 28 | 1010.3 |
| 20260504201537 | 22 | 0 | 1.6 | 4.8 | 0.00 | 0.00 | 0.00 | 32 | 1010.4 |
| 20260504200035 | 22 | 0 | 1.6 | 9.7 | 0.00 | 0.00 | 0.00 | 29 | 1010.3 |
| 20260504194534 | 22 | 0 | 0.0 | 8.0 | 0.00 | 0.00 | 0.00 | 38 | 1010.6 |
| 20260504193035 | 22 | 202 | 0.0 | 12.9 | 0.00 | 0.00 | 0.00 | 28 | 1010.8 |
| 20260504191535 | 22 | 317 | 0.0 | 9.7 | 0.00 | 0.00 | 0.00 | 28 | 1011.0 |
| 20260504190039 | 22 | 0 | 1.6 | 6.4 | 0.00 | 0.00 | 0.00 | 30 | 1011.1 |
| 20260504184535 | 22 | 0 | 0.0 | 6.4 | 0.00 | 0.00 | 0.00 | 27 | 1011.5 |
| 20260504183034 | 22 | 207 | 1.6 | 9.7 | 0.00 | 0.00 | 0.00 | 32 | 1011.8 |
| 20260504181535 | 22 | 0 | 1.6 | 8.0 | 0.00 | 0.00 | 0.00 | 27 | 1011.9 |
| 20260504180039 | 22 | 0 | 0.0 | 9.7 | 0.00 | 0.00 | 0.00 | 31 | 1012.2 |
| 20260504174537 | 22 | 193 | 1.6 | 8.0 | 0.00 | 0.00 | 0.00 | 30 | 1012.6 |
| 20260504173033 | 22 | 315 | 0.0 | 4.8 | 0.00 | 0.00 | 0.00 | 29 | 1012.7 |
| 20260504171544 | 21 | 0 | 0.0 | 11.3 | 0.00 | 0.00 | 0.00 | 28 | 1013.1 |